^^
Station Historical Data
 
Daily Summary for July 29, 2016 Units:  English    Metric   Both
« Previous Day
Next Day »
Daily Weekly Monthly Yearly Custom
  Current: High: Low: Average:
Temperature: 81.6 °F 84.0 °F 81.6 °F 82.4 °F
Dew Point: 75.2 °F 75.3 °F 74.7 °F 75 °F
Humidity: 81% 81% 74% 78%
Wind Speed: 0.0mph 3.5mph 0.0mph 1.3mph
Wind Gust: 0.0mph 3.5mph - -
WindCalm - - SE
Pressure: 30.01 in 30.03 in 30.01 in -
Precipitation: 0.00 in      
Historical Graphs
 
 
Tabular Data for July 29, 2016
Time Temperature Dew Point Pressure Wind Wind Speed Wind Gust Humidity Rainfall Rate (Hourly) solar Conditions
00:00 84.0 °F 74.8 °F 30.02 in SE 3.5 mph 3.5 mph 74% 0.00 in 0.0 W/m2 CLR
00:05 83.8 °F 75.0 °F 30.02 in SE 2.3 mph 2.3 mph 75% 0.00 in 0.0 W/m2 CLR
00:10 83.6 °F 74.8 °F 30.02 in SE 1.2 mph 1.2 mph 75% 0.00 in 0.0 W/m2 CLR
00:15 83.4 °F 75.0 °F 30.02 in SE 1.2 mph 1.2 mph 76% 0.00 in 0.0 W/m2 CLR
00:20 83.2 °F 74.8 °F 30.02 in SSE 2.3 mph 2.3 mph 76% 0.00 in 0.0 W/m2 CLR
00:25 83.0 °F 75.0 °F 30.02 in SE 1.2 mph 1.2 mph 77% 0.00 in 0.0 W/m2 CLR
00:30 82.9 °F 74.9 °F 30.02 in ESE 1.2 mph 1.2 mph 77% 0.00 in 0.0 W/m2 CLR
00:35 82.7 °F 75.1 °F 30.03 in Calm     78% 0.00 in 0.0 W/m2 CLR
00:40 82.5 °F 74.9 °F 30.02 in East 1.2 mph 1.2 mph 78% 0.00 in 0.0 W/m2 CLR
00:45 82.3 °F 74.7 °F 30.02 in SE 2.3 mph 2.3 mph 78% 0.00 in 0.0 W/m2 CLR
00:55 82.0 °F 74.8 °F 30.02 in SSE 1.2 mph 1.2 mph 79% 0.00 in 0.0 W/m2 CLR
01:00 81.9 °F 74.7 °F 30.02 in SE 1.2 mph 1.2 mph 79% 0.00 in 0.0 W/m2 CLR
01:05 81.9 °F 75.1 °F 30.02 in SE 1.2 mph   80% 0.00 in 0.0 W/m2 CLR
01:10 81.9 °F 75.1 °F 30.02 in SE 2.3 mph 2.3 mph 80% 0.00 in 0.0 W/m2 CLR
01:15 81.8 °F 75.0 °F 30.02 in Calm     80% 0.00 in 0.0 W/m2 CLR
01:20 81.8 °F 75.0 °F 30.02 in SE 1.2 mph 1.2 mph 80% 0.00 in 0.0 W/m2 CLR
01:25 81.8 °F 75.0 °F 30.02 in SE 2.3 mph 2.3 mph 80% 0.00 in 0.0 W/m2 CLR
01:30 81.8 °F 75.0 °F 30.02 in SE 1.2 mph   80% 0.00 in 0.0 W/m2 CLR
01:35 81.7 °F 74.9 °F 30.02 in SE 1.2 mph 1.2 mph 80% 0.00 in 0.0 W/m2 CLR
01:40 81.7 °F 75.3 °F 30.02 in Calm     81% 0.00 in 0.0 W/m2 CLR
01:45 81.6 °F 75.2 °F 30.01 in Calm     81% 0.00 in 0.0 W/m2 CLR
01:50 81.6 °F 75.2 °F 30.01 in Calm     81% 0.00 in 0.0 W/m2 CLR
Lake Mary, FL, USA
Compliments of Weather Underground - 1 mb